Simultaneous Nadir Overpasses (SNOs) Predictions

Prediction of SNOs between METOP-A and TERRA Satellite Orbit:

Table of predicted SNOs for the next 14.0 days since TLE Epoch: 2/26/2017
Index Date (METOP-A) Time (METOP-A) Lat,Lon (METOP-A) SZA (METOP-A ) Date (TERRA) Time (TERRA) Lat,Lon (TERRA) SZA (TERRA ) Distance(km) Time Diff (sec)
1 02/27/2017 06:46:20 81.32, 125.89 91.96 02/27/2017 06:46:53 81.32, 125.94 91.98 0.95 33
2 02/27/2017 07:36:59 -81.33, -66.19 87.99 02/27/2017 07:36:19 -81.33, -66.11 87.99 1.59 40
3 03/02/2017 02:20:42 81.32,-167.48 90.94 03/02/2017 02:21:10 81.33,-167.36 90.97 2.06 28
4 03/02/2017 03:11:22 -81.33, 0.09 89.05 03/02/2017 03:10:37 -81.33, 0.24 89.05 2.57 45
5 03/04/2017 21:55:04 81.33,-100.86 89.90 03/04/2017 21:55:29 81.33,-101.03 89.90 2.77 25
6 03/04/2017 22:45:44 -81.33, 66.74 90.08 03/04/2017 22:44:56 -81.33, 66.61 90.12 2.23 48
7 03/07/2017 17:29:26 81.32, -34.67 88.81 03/07/2017 17:29:48 81.32, -34.67 88.82 0.04 22
8 03/07/2017 18:20:06 -81.33, 132.98 91.17 03/07/2017 18:19:15 -81.32, 133.00 91.19 0.39 51
9 03/10/2017 13:03:48 81.33, 31.89 87.75 03/10/2017 13:04:09 81.32, 31.71 87.74 3.20 21




NCC Satellite Simultaneous Nadir Overpasses (SNOs) Prediction Service
